Tracking 19792 objects as of 17-Jul-2019
HD Live streaming from Space Station
objects crossing your sky now

SL-8 DEB

Track SL-8 DEB now!
10-day predictions


NORAD ID: 19048
Int'l Code: 1988-029C
Perigee: 688.1 km
Apogee: 707.2 km
Inclination: 74.0 °
Period: 98.6 minutes
Semi major axis: 7068 km
RCS: 0.0085 m2 (small)
Launch date: April 5, 1988
Source: Commonwealth of Independent States (former USSR) (CIS)
Launch site: PLESETSK MISSILE AND SPACE COMPLEX (PKMTR)

Note: This is SATELLITE DEBRIS
aabbcc
Your satellite tracking list
Your tracking list is empty




NASA's NSSDC Master Catalog

Two Line Element Set (TLE):
1 19048U 88029C   19197.29526144  .00000168  00000-0  40565-4 0  9998
2 19048  74.0241 265.7266 0013531 232.4459 199.6550 14.60824735653557
Source of the keplerian elements: AFSPC